Regional Weather Roundup
Issued by NWS Charleston, SC

Current Version | Previous Version | Text Only | Print | Product List | Glossary Off
Versions: 1 2 3 4 5 6 7 8 9 10 11 12 13 14 15 16 17 18 19 20 21 22 23 24 25 26 27 28 29 30 31 32 33 34 35 36 37 38 39 40 41 42 43 44 45 46 47 48 49 50
000 ASUS42 KCHS 182112 RWRCHS REGIONAL WEATHER ROUNDUP NATIONAL WEATHER SERVICE CHARLESTON SC 500 PM EDT WED OCT 18 2017 NOTE: "FAIR" INDICATES FEW OR NO CLOUDS BELOW 12,000 FEET WITH NO SIGNIFICANT WEATHER AND/OR OBSTRUCTIONS TO VISIBILITY. NOT ALL STATIONS ARE QUALITY CONTROLLED. USE DATA WITH CAUTION... ESPECIALLY DEWPOINT OBSERVATIONS. SCZ027-030-031-034>040-042>050-182200- ...SOUTHEAST SOUTH CAROLINA... CITY SKY/WX TMP DP RH WIND PRES REMARKS N CHARLESTON MOSUNNY 74 58 57 NE9 30.23F WATERFRONT PRK N/A 74 63 68 E12 30.08S JOHNS ISLAND FAIR 72 63 73 NE13G20 30.23F PINOPOLIS N/A 72 57 60 NE8 30.18S MONCKS CORNER FAIR 72 52 49 E6 30.25S SUMMERVILLE FAIR 72 55 56 N7 30.26S BEAUFORT MCAS PTSUNNY 77 60 55 NE12 30.23S BEAUFORT ARPT MOCLDY 73 59 60 NE9 30.22S HILTON HEAD IS SUNNY 73 63 68 E8 N/A WALTERBORO CLEAR 72 55 56 E9 30.25S ALLENDALE NOT AVBL ...SOUTHERN MIDLANDS AND PEE DEE... CITY SKY/WX TMP DP RH WIND PRES REMARKS GEORGETOWN FAIR 72 55 56 NE9 30.26S KINGSTREE FAIR 72 50 46 CALM 30.27S ORANGEBURG SUNNY 72 41 32 E8 30.27S BARNWELL N/A 73 43 33 NE8 30.26S AIKEN FAIR 70 36 28 NE6 30.30S MANNING HAZE 72 54 53 MISG 30.27S VSB<1/4 COLUMBIA SUNNY 72 37 28 NE6 30.27F SUMTER SUNNY 71 36 27 NE6 30.26S FLORENCE SUNNY 71 44 37 NE8 30.28F MYRTLE BEACH SUNNY 74 57 55 N10 30.26F N MYRTLE BEACH SUNNY 74 55 51 N8 30.25S $$ GAZ063-065-086>088-099>101-113>116-118-119-134>141-150-182200- ...SOUTHEAST GEORGIA... CITY SKY/WX TMP DP RH WIND PRES REMARKS SAVANNAH ARPT MOSUNNY 76 58 53 E9 30.22S HUNTER AAF SUNNY 75 60 58 NE9 30.19S FORT STEWART SUNNY 77 58 51 E9 30.19S STATESBORO SUNNY 75 49 39 NE3 30.23S SYLVANIA CLEAR 75 56 51 E9 30.24S CLAXTON FAIR 76 56 50 N6 30.22S ...CSRA...CENTRAL AND FAR SOUTHEAST GEORGIA... CITY SKY/WX TMP DP RH WIND PRES REMARKS THOMSON SUNNY 71 39 31 E5 30.31S AUGUSTA-BUSH SUNNY 75 37 25 E9 30.25F AUGUSTA-DANIEL SUNNY 75 37 25 NE10 30.26F SWAINSBORO FAIR 73 43 33 MISG 30.24F VIDALIA SUNNY 77 50 38 NE7 30.22F EASTMAN FAIR 76 5 6 NE8 30.24F HAZLEHURST FAIR 77 35 21 NE7 30.20S ALMA SUNNY 78 56 46 VRB3 30.19F WAYCROSS MOSUNNY 79 54 41 E6 30.18S JESUP FAIR 79 55 44 E9 30.20 BAXLEY FAIR 75 54 46 E6 30.20S BRUNSWICK CLOUDY 72 61 68 NE12 30.21S SAINT SIMONS CLOUDY 74 66 76 NE15 30.19S $$ SCZ027-028-034-036>038-045-046-048>050-GAZ119-141-182200- ...LAKE AND SUPPLEMENTAL COASTAL OBSERVATIONS... STATION/POSITION TIME TEMP WIND PRES WAVE SWELL AIR SEA DIR/SP/G HT/PER HT/PER/DIR (UTC) (F) (DEG/KT/KT) (MB) (FT/S) (FT/S/D) WINYAH BAY 1945 71 40/ 11 1024.0 LAKE MURRAY 2020 70 50/ 3/ 6 1024.4 ACE BASIN NERRS 1945 76 30/ 4 1024.0 FORT PULASKI 2042 71 76 70/ 13/ 16 1023.5F SAPELO ISLAND 2000 71 30/ 14 1023.0 $$ ANZ835-935-AMZ111-154-330-350-352-354-370-450-454-472-182200- ...C-MAN AND BUOY OBSERVATIONS... STATION/POSITION TIME TEMP WIND PRES WAVE SWELL AIR SEA DIR/SP/G HT/PER HT/PER/DIR (UTC) (F) (DEG/KT/KT) (MB) (FT/S) (FT/S/D) BUOY 41004 2050 73 80 40/ 19/ 25 1022.3F 8/ 9 3/ 90/ 9 BUOY 41008 2050 73 78 50/ 21/ 25 1021.6F 7/ 9 3/120/ 9 FOLLY BEACH CMAN 2100 70 60/ 18/ 21 1024.4F CAPERS NEARSHORE 2008 67 74 60/ 16/ 21 1023.6F FRIPP NEARSHORE 2008 72 60/ 17/ 21 N/A STATION/POSITION TIME TEMP WIND PRES WAVE SWELL AIR SEA DIR/SP/G HT/PER HT/PER/DIR (UTC) (F) (DEG/KT/KT) (MB) (FT/S) (FT/S/D) 5E ST. MARYS GA 2100 78 N/A 7/ 6 2/110/11 FRYING PAN BUOY 2050 71 77 30/ 21/ 25 1023.4R 7/ 6 3/130/10 BUOY 41025 2050 72 82 30/ 19/ 21 1024.0F 7/ 6 CAPE LOOKOUT NC 2000 68 20/ 19/ 23 1024.9F BUOY 41002 2050 76 80 60/ 23/ 29 1019.8R 10/ 8 BUOY 41010 NOT AVBL ST AUGUSTINE FL 2100 76 79 20/ 23/ 25 1020.5S $$

USA.gov is the U.S. government's official web portal to all federal, state and local government web resources and services.